User: anonymous   Login
Location: Ariel
(45.9570°N, 122.5700°W)
Time: 18:15:51
(UTC-07:00)
Language:

DX 1 - Orbit

View from above orbital plane
View from above orbital plane
View from above satellite
View from above satellite

Ground track
Ground track

The orbit data is extracted from the following two-line orbital elements,

1 40071U 14037C   20297.78479040  .00000079  00000-0  17655-4 0  9990
2 40071  98.4618 123.3240 0009630  85.7823 274.4489 14.81401613340257
Epoch (UTC): 23 October 2020 18:50:05
Eccentricity: 0.0009630
inclination: 98.4618°
perigee height: 618 km
apogee height: 631 km
right ascension of ascending node: 123.3240°
argument of perigee: 85.7823°
revolutions per day: 14.81401613
mean anomaly at epoch: 274.4489°
orbit number at epoch: 34025

The dashed part of the orbit path shows where the satellite is in the earth's shadow,  

DLR